User: anonymous   Login
Location: Eaton Estates
(41.3089°N, 82.0057°W)
Time: 18:00:50
(UTC+00:00)
Language:

NOAA 18 - Orbit

View from above orbital plane
View from above orbital plane
View from above satellite
View from above satellite

Ground track
Ground track

The orbit data is extracted from the following two-line orbital elements,

1 28654U 05018A   23336.45362546  .00000703  00000-0  40031-3 0  9992
2 28654  98.8957  49.9148 0013333 262.6440  97.3216 14.13071727955331
Epoch (UTC): 02 December 2023 10:53:13
Eccentricity: 0.0013333
inclination: 98.8957°
perigee height: 839 km
apogee height: 858 km
right ascension of ascending node: 49.9148°
argument of perigee: 262.6440°
revolutions per day: 14.13071727
mean anomaly at epoch: 97.3216°
orbit number at epoch: 95533

The dashed part of the orbit path shows where the satellite is in the earth's shadow,  

DLR